Time,TemperatureF,DewpointF,PressureIn,WindDirection,WindDirectionDegrees,WindSpeedMPH,WindSpeedGustMPH,Humidity,HourlyPrecipIn,Conditions,Clouds,dailyrainin,SolarRadiationWatts/m^2,SoftwareType,DateUTC
2013-04-28 00:01:00,58.7,46.5,30.03,SSE,162,0.0,1.0,64,0.00,,,0.00,0,Wunderground v.1.15,2013-04-28 04:01:00,
2013-04-28 00:04:00,58.6,46.5,30.03,East,92,0.0,1.0,64,0.00,,,0.00,0,Wunderground v.1.15,2013-04-28 04:04:00,
2013-04-28 00:07:00,58.6,46.9,30.02,SSE,162,0.0,1.0,65,0.00,,,0.00,0,Wunderground v.1.15,2013-04-28 04:07:00,
2013-04-28 00:08:00,58.6,46.9,30.03,SSE,162,0.0,1.0,65,0.00,,,0.00,0,Wunderground v.1.15,2013-04-28 04:08:00,
2013-04-28 00:14:00,58.5,47.2,30.03,SSE,165,0.0,1.0,66,0.00,,,0.00,0,Wunderground v.1.15,2013-04-28 04:14:00,
2013-04-28 00:20:00,58.4,47.1,30.03,SSE,164,0.0,1.0,66,0.00,,,0.00,0,Wunderground v.1.15,2013-04-28 04:20:00,
2013-04-28 00:25:00,58.2,47.3,30.03,SSE,165,0.0,1.0,67,0.00,,,0.00,0,Wunderground v.1.15,2013-04-28 04:25:00,
2013-04-28 00:31:00,58.2,46.9,30.02,SSE,165,0.0,1.0,66,0.00,,,0.00,0,Wunderground v.1.15,2013-04-28 04:31:00,
2013-04-28 00:37:00,58.1,47.2,30.02,SE,136,0.0,3.0,67,0.00,,,0.00,0,Wunderground v.1.15,2013-04-28 04:37:00,
2013-04-28 00:43:00,58.0,47.1,30.02,SE,130,0.0,1.0,67,0.00,,,0.00,0,Wunderground v.1.15,2013-04-28 04:43:00,
2013-04-28 00:49:00,58.0,47.1,30.02,ESE,120,0.0,1.0,67,0.00,,,0.00,0,Wunderground v.1.15,2013-04-28 04:49:00,
2013-04-28 00:54:00,57.9,47.0,30.01,SE,128,0.0,-999.0,67,-99.99,,,0.00,,weatherlink.com 1.10,2013-04-28 04:54:00,
2013-04-28 01:00:00,57.8,47.3,30.01,ESE,123,0.0,0.0,68,0.00,,,0.00,0,Wunderground v.1.15,2013-04-28 05:00:00,
2013-04-28 01:06:00,57.7,47.6,30.01,ESE,123,0.0,3.0,69,0.00,,,0.00,0,Wunderground v.1.15,2013-04-28 05:06:00,
2013-04-28 01:11:00,57.5,47.4,30.01,ESE,105,0.0,3.0,69,0.00,,,0.00,0,Wunderground v.1.15,2013-04-28 05:11:00,
2013-04-28 01:17:00,57.4,47.7,30.00,ESE,105,0.0,3.0,70,0.00,,,0.00,0,Wunderground v.1.15,2013-04-28 05:17:00,
2013-04-28 01:23:00,57.2,47.5,30.00,SE,133,0.0,3.0,70,0.00,,,0.00,0,Wunderground v.1.15,2013-04-28 05:23:00,
2013-04-28 01:28:00,57.2,47.9,30.00,SE,133,0.0,3.0,71,0.00,,,0.00,0,Wunderground v.1.15,2013-04-28 05:28:00,
2013-04-28 01:34:00,56.9,47.6,29.99,East,95,0.0,3.0,71,0.00,,,0.00,0,Wunderground v.1.15,2013-04-28 05:34:00,
2013-04-28 01:40:00,56.7,48.0,30.00,East,95,0.0,-999.0,72,-99.99,,,0.00,,weatherlink.com 1.10,2013-04-28 05:40:00,
2013-04-28 01:46:00,56.6,47.7,29.99,East,95,0.0,3.0,72,0.00,,,0.00,0,Wunderground v.1.15,2013-04-28 05:46:00,
2013-04-28 01:51:00,56.6,47.7,29.98,East,95,0.0,3.0,72,0.00,,,0.00,0,Wunderground v.1.15,2013-04-28 05:51:00,
2013-04-28 01:57:00,56.4,47.9,29.98,East,96,0.0,3.0,73,0.00,,,0.00,0,Wunderground v.1.15,2013-04-28 05:57:00,
2013-04-28 02:02:00,56.4,47.9,29.98,East,96,0.0,4.0,73,0.00,,,0.00,0,Wunderground v.1.15,2013-04-28 06:02:00,
2013-04-28 02:08:00,56.3,48.1,29.98,East,96,0.0,4.0,74,0.00,,,0.00,0,Wunderground v.1.15,2013-04-28 06:08:00,
2013-04-28 02:14:00,56.2,48.0,29.98,East,96,0.0,4.0,74,0.00,,,0.00,0,Wunderground v.1.15,2013-04-28 06:14:00,
2013-04-28 02:19:00,56.0,48.5,29.98,East,96,0.0,4.0,76,0.00,,,0.00,0,Wunderground v.1.15,2013-04-28 06:19:00,
2013-04-28 02:25:00,55.8,49.0,29.97,East,96,0.0,-999.0,77,-99.99,,,0.00,,weatherlink.com 1.10,2013-04-28 06:25:00,
2013-04-28 02:30:00,55.6,48.5,29.97,East,96,0.0,4.0,77,0.00,,,0.00,0,Wunderground v.1.15,2013-04-28 06:30:00,
2013-04-28 02:36:00,55.6,48.5,29.96,East,96,0.0,4.0,77,0.00,,,0.00,0,Wunderground v.1.15,2013-04-28 06:36:00,
2013-04-28 02:42:00,55.7,48.6,29.96,East,96,0.0,4.0,77,0.00,,,0.00,0,Wunderground v.1.15,2013-04-28 06:42:00,
2013-04-28 02:48:00,55.7,48.2,29.96,East,96,0.0,4.0,76,0.00,,,0.00,0,Wunderground v.1.15,2013-04-28 06:48:00,
2013-04-28 02:54:00,55.8,48.3,29.96,East,96,0.0,4.0,76,0.00,,,0.00,0,Wunderground v.1.15,2013-04-28 06:54:00,
2013-04-28 03:00:00,55.8,48.7,29.95,ENE,72,1.0,1.0,77,0.00,,,0.00,0,Wunderground v.1.15,2013-04-28 07:00:00,
2013-04-28 03:06:00,55.7,48.9,29.95,East,95,1.0,3.0,78,0.00,,,0.00,0,Wunderground v.1.15,2013-04-28 07:06:00,
2013-04-28 03:11:00,55.5,48.4,29.95,ENE,71,1.0,3.0,77,0.00,,,0.00,0,Wunderground v.1.15,2013-04-28 07:11:00,
2013-04-28 03:17:00,55.2,48.5,29.94,East,92,1.0,3.0,78,0.00,,,0.00,0,Wunderground v.1.15,2013-04-28 07:17:00,
2013-04-28 03:23:00,55.0,48.6,29.94,East,92,0.0,3.0,79,0.00,,,0.00,0,Wunderground v.1.15,2013-04-28 07:23:00,
2013-04-28 03:28:00,54.8,48.7,29.93,ENE,78,0.0,4.0,80,0.00,,,0.00,0,Wunderground v.1.15,2013-04-28 07:28:00,
2013-04-28 03:34:00,54.6,48.6,29.94,ENE,74,1.0,3.0,80,0.00,,,0.00,0,Wunderground v.1.15,2013-04-28 07:34:00,
2013-04-28 03:40:00,54.5,48.0,29.93,ENE,78,0.0,-999.0,80,-99.99,,,0.00,,weatherlink.com 1.10,2013-04-28 07:40:00,
2013-04-28 03:46:00,54.4,48.7,29.93,ENE,78,1.0,3.0,81,0.00,,,0.00,0,Wunderground v.1.15,2013-04-28 07:46:00,
2013-04-28 03:52:00,54.2,48.5,29.93,ENE,75,1.0,3.0,81,0.00,,,0.00,0,Wunderground v.1.15,2013-04-28 07:52:00,
2013-04-28 03:58:00,54.1,48.1,29.93,ENE,71,2.0,4.0,80,0.00,,,0.00,0,Wunderground v.1.15,2013-04-28 07:58:00,
2013-04-28 04:03:00,53.9,47.9,29.93,ENE,74,1.0,5.0,80,0.00,,,0.00,0,Wunderground v.1.15,2013-04-28 08:03:00,
2013-04-28 04:09:00,53.7,48.0,29.92,ENE,76,1.0,5.0,81,0.00,,,0.00,0,Wunderground v.1.15,2013-04-28 08:09:00,
2013-04-28 04:14:00,53.6,48.2,29.92,East,88,1.0,5.0,82,0.00,,,0.00,0,Wunderground v.1.15,2013-04-28 08:14:00,
2013-04-28 04:20:00,53.3,48.3,29.92,East,87,1.0,1.0,83,0.00,,,0.00,0,Wunderground v.1.15,2013-04-28 08:20:00,
2013-04-28 04:26:00,53.2,48.5,29.92,East,87,0.0,5.0,84,0.00,,,0.00,0,Wunderground v.1.15,2013-04-28 08:26:00,
2013-04-28 04:31:00,53.0,48.6,29.92,East,86,0.0,5.0,85,0.00,,,0.00,0,Wunderground v.1.15,2013-04-28 08:31:00,
2013-04-28 04:37:00,52.9,48.5,29.92,East,86,0.0,5.0,85,0.00,,,0.00,0,Wunderground v.1.15,2013-04-28 08:37:00,
2013-04-28 04:43:00,53.0,48.6,29.92,East,86,0.0,5.0,85,0.00,,,0.01,0,Wunderground v.1.15,2013-04-28 08:43:00,
2013-04-28 04:49:00,52.9,48.5,29.92,East,86,0.0,5.0,85,0.00,,,0.01,0,Wunderground v.1.15,2013-04-28 08:49:00,
2013-04-28 04:55:00,52.7,49.0,29.91,East,86,2.0,-999.0,86,-99.99,,,0.01,,weatherlink.com 1.10,2013-04-28 08:55:00,
2013-04-28 05:00:00,52.4,48.3,29.91,East,84,1.0,2.0,86,0.00,,,0.02,0,Wunderground v.1.15,2013-04-28 09:00:00,
2013-04-28 05:06:00,52.2,48.1,29.91,East,83,1.0,4.0,86,0.00,,,0.02,0,Wunderground v.1.15,2013-04-28 09:06:00,
2013-04-28 05:11:00,51.9,48.2,29.91,East,83,1.0,4.0,87,0.00,,,0.02,0,Wunderground v.1.15,2013-04-28 09:11:00,
2013-04-28 05:17:00,51.7,48.3,29.91,East,83,1.0,4.0,88,0.04,,,0.03,0,Wunderground v.1.15,2013-04-28 09:17:00,
2013-04-28 05:23:00,51.5,48.1,29.90,East,84,1.0,4.0,88,0.04,,,0.03,0,Wunderground v.1.15,2013-04-28 09:23:00,
2013-04-28 05:28:00,51.4,48.3,29.90,East,83,1.0,4.0,89,0.04,,,0.03,0,Wunderground v.1.15,2013-04-28 09:28:00,
2013-04-28 05:34:00,51.3,48.2,29.90,East,83,1.0,4.0,89,0.04,,,0.04,0,Wunderground v.1.15,2013-04-28 09:34:00,
2013-04-28 05:40:00,51.3,49.0,29.89,East,86,0.0,-999.0,90,-99.99,,,0.04,,weatherlink.com 1.10,2013-04-28 09:40:00,
2013-04-28 05:46:00,51.2,48.7,29.90,East,85,1.0,4.0,91,0.00,,,0.04,0,Wunderground v.1.15,2013-04-28 09:46:00,
2013-04-28 05:52:00,51.3,48.8,29.89,East,85,1.0,4.0,91,0.00,,,0.04,0,Wunderground v.1.15,2013-04-28 09:52:00,
2013-04-28 05:58:00,51.2,48.7,29.89,East,85,1.0,4.0,91,0.00,,,0.05,0,Wunderground v.1.15,2013-04-28 09:58:00,
2013-04-28 06:03:00,51.2,48.7,29.89,East,85,1.0,4.0,91,0.00,,,0.05,0,Wunderground v.1.15,2013-04-28 10:03:00,
2013-04-28 06:08:00,51.2,48.7,29.89,East,84,1.0,4.0,91,0.00,,,0.05,0,Wunderground v.1.15,2013-04-28 10:08:00,
2013-04-28 06:14:00,51.2,48.7,29.89,East,85,0.0,4.0,91,0.00,,,0.05,0,Wunderground v.1.15,2013-04-28 10:14:00,
2013-04-28 06:20:00,51.1,48.6,29.89,East,85,0.0,4.0,91,0.00,,,0.05,0,Wunderground v.1.15,2013-04-28 10:20:00,
2013-04-28 06:26:00,51.0,49.0,29.89,East,85,0.0,-999.0,91,-99.99,,,0.07,,weatherlink.com 1.10,2013-04-28 10:26:00,
2013-04-28 06:31:00,51.0,48.8,29.90,East,86,0.0,4.0,92,0.19,,,0.08,0,Wunderground v.1.15,2013-04-28 10:31:00,
2013-04-28 06:37:00,51.0,48.8,29.90,East,85,1.0,4.0,92,0.17,,,0.10,0,Wunderground v.1.15,2013-04-28 10:37:00,
2013-04-28 06:43:00,51.1,49.1,29.89,East,82,1.0,4.0,93,0.12,,,0.11,0,Wunderground v.1.15,2013-04-28 10:43:00,
2013-04-28 06:49:00,51.2,49.2,29.89,East,87,2.0,4.0,93,0.17,,,0.12,0,Wunderground v.1.15,2013-04-28 10:49:00,
2013-04-28 06:54:00,51.2,49.2,29.89,East,96,2.0,4.0,93,0.33,,,0.15,0,Wunderground v.1.15,2013-04-28 10:54:00,
2013-04-28 07:00:00,51.3,49.3,29.89,East,93,2.0,2.0,93,0.32,,,0.18,0,Wunderground v.1.15,2013-04-28 11:00:00,
2013-04-28 07:06:00,51.2,49.2,29.89,East,84,2.0,4.0,93,0.41,,,0.21,0,Wunderground v.1.15,2013-04-28 11:06:00,
2013-04-28 07:11:00,51.2,49.0,29.89,ENE,75,5.0,-999.0,93,-99.99,,,0.24,,weatherlink.com 1.10,2013-04-28 11:11:00,
2013-04-28 07:16:00,51.2,49.5,29.89,ENE,74,4.0,5.0,94,0.26,,,0.26,0,Wunderground v.1.15,2013-04-28 11:16:00,
2013-04-28 07:22:00,51.2,49.5,29.89,East,80,3.0,4.0,94,0.33,,,0.29,0,Wunderground v.1.15,2013-04-28 11:22:00,
2013-04-28 07:28:00,51.1,49.4,29.89,East,80,2.0,4.0,94,0.29,,,0.33,0,Wunderground v.1.15,2013-04-28 11:28:00,
2013-04-28 07:33:00,51.1,49.4,29.89,East,90,2.0,4.0,94,0.16,,,0.34,0,Wunderground v.1.15,2013-04-28 11:33:00,
2013-04-28 07:39:00,51.1,49.7,29.89,ENE,78,2.0,4.0,95,0.19,,,0.36,0,Wunderground v.1.15,2013-04-28 11:39:00,
2013-04-28 07:45:00,51.2,49.8,29.89,ENE,73,2.0,5.0,95,0.19,,,0.38,5,Wunderground v.1.15,2013-04-28 11:45:00,
2013-04-28 07:51:00,51.3,49.9,29.88,East,84,2.0,4.0,95,0.18,,,0.39,9,Wunderground v.1.15,2013-04-28 11:51:00,
2013-04-28 07:57:00,51.3,50.0,29.88,ESE,111,3.0,-999.0,95,-99.99,,,0.41,,weatherlink.com 1.10,2013-04-28 11:57:00,
2013-04-28 08:02:00,51.4,50.0,29.88,East,93,1.0,7.0,95,0.10,,,0.41,12,Wunderground v.1.15,2013-04-28 12:02:00,
2013-04-28 08:08:00,51.5,50.1,29.88,East,88,1.0,7.0,95,0.15,,,0.43,14,Wunderground v.1.15,2013-04-28 12:08:00,
2013-04-28 08:14:00,51.6,50.5,29.88,East,84,1.0,7.0,96,0.10,,,0.44,16,Wunderground v.1.15,2013-04-28 12:14:00,
2013-04-28 08:19:00,51.6,50.5,29.88,East,90,1.0,7.0,96,0.12,,,0.45,14,Wunderground v.1.15,2013-04-28 12:19:00,
2013-04-28 08:25:00,51.7,51.0,29.88,East,92,0.0,-999.0,96,-99.99,,,0.46,,weatherlink.com 1.10,2013-04-28 12:25:00,
2013-04-28 08:31:00,51.8,50.7,29.88,East,100,1.0,7.0,96,0.11,,,0.47,25,Wunderground v.1.15,2013-04-28 12:31:00,
2013-04-28 08:37:00,51.9,50.8,29.88,East,84,3.0,7.0,96,0.07,,,0.48,18,Wunderground v.1.15,2013-04-28 12:37:00,
2013-04-28 08:42:00,51.9,50.8,29.88,East,89,2.0,7.0,96,0.07,,,0.48,18,Wunderground v.1.15,2013-04-28 12:42:00,
2013-04-28 08:48:00,52.0,50.9,29.87,East,93,1.0,7.0,96,0.05,,,0.48,25,Wunderground v.1.15,2013-04-28 12:48:00,
2013-04-28 08:54:00,52.1,51.0,29.88,East,96,1.0,7.0,96,0.04,,,0.49,25,Wunderground v.1.15,2013-04-28 12:54:00,
2013-04-28 09:00:00,52.2,51.1,29.87,East,101,1.0,3.0,96,0.04,,,0.49,37,Wunderground v.1.15,2013-04-28 13:00:00,
2013-04-28 09:06:00,52.2,51.1,29.87,East,101,1.0,7.0,96,0.00,,,0.49,51,Wunderground v.1.15,2013-04-28 13:06:00,
2013-04-28 09:11:00,52.3,51.2,29.87,ESE,104,1.0,7.0,96,0.00,,,0.49,51,Wunderground v.1.15,2013-04-28 13:11:00,
2013-04-28 09:17:00,52.4,51.3,29.87,East,84,1.0,7.0,96,0.00,,,0.49,39,Wunderground v.1.15,2013-04-28 13:17:00,
2013-04-28 09:23:00,52.4,51.3,29.87,SE,126,2.0,7.0,96,0.00,,,0.49,37,Wunderground v.1.15,2013-04-28 13:23:00,
2013-04-28 09:28:00,52.5,51.4,29.86,ENE,78,2.0,7.0,96,0.00,,,0.49,46,Wunderground v.1.15,2013-04-28 13:28:00,
2013-04-28 09:34:00,52.6,51.5,29.86,East,90,1.0,7.0,96,0.00,,,0.49,49,Wunderground v.1.15,2013-04-28 13:34:00,
2013-04-28 09:40:00,52.6,52.0,29.86,East,90,2.0,-999.0,96,-99.99,,,0.49,,weatherlink.com 1.10,2013-04-28 13:40:00,
2013-04-28 09:45:00,52.7,51.6,29.86,East,82,1.0,7.0,96,0.00,,,0.49,63,Wunderground v.1.15,2013-04-28 13:45:00,
2013-04-28 09:51:00,52.8,51.7,29.86,ESE,105,1.0,7.0,96,0.00,,,0.50,70,Wunderground v.1.15,2013-04-28 13:51:00,
2013-04-28 09:57:00,52.8,51.7,29.86,East,93,1.0,7.0,96,0.00,,,0.50,60,Wunderground v.1.15,2013-04-28 13:57:00,
2013-04-28 10:02:00,53.0,51.9,29.85,East,101,1.0,9.0,96,0.00,,,0.50,83,Wunderground v.1.15,2013-04-28 14:02:00,
2013-04-28 10:08:00,53.0,51.9,29.85,ESE,107,1.0,9.0,96,0.00,,,0.50,74,Wunderground v.1.15,2013-04-28 14:08:00,
2013-04-28 10:14:00,53.2,52.1,29.85,East,100,1.0,9.0,96,0.00,,,0.50,93,Wunderground v.1.15,2013-04-28 14:14:00,
2013-04-28 10:19:00,53.3,52.2,29.85,ESE,111,1.0,9.0,96,0.00,,,0.50,76,Wunderground v.1.15,2013-04-28 14:19:00,
2013-04-28 10:25:00,53.5,52.4,29.85,SE,126,1.0,9.0,96,0.00,,,0.50,67,Wunderground v.1.15,2013-04-28 14:25:00,
2013-04-28 10:30:00,53.6,52.5,29.85,ESE,121,0.0,9.0,96,0.00,,,0.50,72,Wunderground v.1.15,2013-04-28 14:30:00,
2013-04-28 10:36:00,53.7,52.6,29.85,ESE,106,0.0,9.0,96,0.00,,,0.50,104,Wunderground v.1.15,2013-04-28 14:36:00,
2013-04-28 10:42:00,53.9,53.0,29.85,ESE,122,0.0,-999.0,96,-99.99,,,0.50,,weatherlink.com 1.10,2013-04-28 14:42:00,
2013-04-28 10:47:00,54.1,53.0,29.84,ESE,105,1.0,9.0,96,0.00,,,0.50,104,Wunderground v.1.15,2013-04-28 14:47:00,
2013-04-28 10:53:00,54.2,53.1,29.84,ESE,118,1.0,9.0,96,0.00,,,0.50,84,Wunderground v.1.15,2013-04-28 14:53:00,
2013-04-28 10:59:00,54.4,53.3,29.84,ESE,123,1.0,9.0,96,0.00,,,0.50,118,Wunderground v.1.15,2013-04-28 14:59:00,
2013-04-28 11:04:00,54.5,53.4,29.84,ESE,119,0.0,4.0,96,0.00,,,0.50,123,Wunderground v.1.15,2013-04-28 15:04:00,
2013-04-28 11:10:00,54.8,54.0,29.84,SE,130,3.0,-999.0,96,-99.99,,,0.50,,weatherlink.com 1.10,2013-04-28 15:10:00,
2013-04-28 11:15:00,54.9,53.8,29.84,SE,128,0.0,4.0,96,0.00,,,0.50,95,Wunderground v.1.15,2013-04-28 15:15:00,
2013-04-28 11:20:00,55.0,53.9,29.84,SE,128,0.0,4.0,96,0.00,,,0.50,97,Wunderground v.1.15,2013-04-28 15:20:00,
2013-04-28 11:26:00,55.2,54.1,29.83,ESE,114,0.0,4.0,96,0.00,,,0.50,114,Wunderground v.1.15,2013-04-28 15:26:00,
2013-04-28 11:31:00,55.4,54.3,29.83,ESE,114,0.0,4.0,96,0.00,,,0.50,88,Wunderground v.1.15,2013-04-28 15:31:00,
2013-04-28 11:37:00,55.6,54.5,29.83,ESE,114,0.0,4.0,96,0.00,,,0.50,97,Wunderground v.1.15,2013-04-28 15:37:00,
2013-04-28 11:42:00,55.8,54.7,29.83,South,171,1.0,4.0,96,0.00,,,0.50,107,Wunderground v.1.15,2013-04-28 15:42:00,
2013-04-28 11:48:00,56.1,54.7,29.83,ESE,120,1.0,4.0,95,0.00,,,0.50,135,Wunderground v.1.15,2013-04-28 15:48:00,
2013-04-28 11:54:00,56.4,54.7,29.83,South,169,1.0,4.0,94,0.00,,,0.50,179,Wunderground v.1.15,2013-04-28 15:54:00,
2013-04-28 12:00:00,56.7,55.0,29.83,SE,129,0.0,0.0,94,0.00,,,0.50,132,Wunderground v.1.15,2013-04-28 16:00:00,
2013-04-28 12:06:00,56.9,54.9,29.83,SE,145,0.0,5.0,93,0.00,,,0.50,127,Wunderground v.1.15,2013-04-28 16:06:00,
2013-04-28 12:12:00,56.9,54.9,29.83,East,97,0.0,5.0,93,0.00,,,0.50,104,Wunderground v.1.15,2013-04-28 16:12:00,
2013-04-28 12:18:00,56.9,54.9,29.83,East,84,0.0,5.0,93,0.00,,,0.50,88,Wunderground v.1.15,2013-04-28 16:18:00,
2013-04-28 12:24:00,56.9,54.9,29.83,SW,219,0.0,5.0,93,0.00,,,0.50,56,Wunderground v.1.15,2013-04-28 16:24:00,
2013-04-28 12:30:00,56.9,54.9,29.83,SW,219,0.0,5.0,93,0.00,,,0.50,54,Wunderground v.1.15,2013-04-28 16:30:00,
2013-04-28 12:35:00,56.9,54.9,29.83,SSW,207,0.0,5.0,93,0.00,,,0.51,77,Wunderground v.1.15,2013-04-28 16:35:00,
2013-04-28 12:41:00,56.9,55.2,29.83,SSW,207,0.0,5.0,94,0.11,,,0.52,70,Wunderground v.1.15,2013-04-28 16:41:00,
2013-04-28 12:47:00,56.9,55.2,29.83,SSW,207,0.0,5.0,94,0.12,,,0.53,74,Wunderground v.1.15,2013-04-28 16:47:00,
2013-04-28 12:53:00,56.9,55.2,29.82,SSW,207,0.0,5.0,94,0.12,,,0.54,100,Wunderground v.1.15,2013-04-28 16:53:00,
2013-04-28 12:59:00,57.0,55.6,29.82,SSW,207,0.0,5.0,95,0.12,,,0.55,153,Wunderground v.1.15,2013-04-28 16:59:00,
2013-04-28 13:05:00,57.0,55.6,29.82,SSW,207,0.0,5.0,95,0.06,,,0.55,107,Wunderground v.1.15,2013-04-28 17:05:00,
2013-04-28 13:10:00,57.1,56.0,29.82,SSW,207,0.0,-999.0,95,-99.99,,,0.56,,weatherlink.com 1.10,2013-04-28 17:10:00,
2013-04-28 13:17:00,57.2,55.8,29.82,SSE,147,0.0,5.0,95,0.05,,,0.56,111,Wunderground v.1.15,2013-04-28 17:17:00,
2013-04-28 13:23:00,57.3,55.9,29.81,SE,130,1.0,5.0,95,0.00,,,0.56,109,Wunderground v.1.15,2013-04-28 17:23:00,
2013-04-28 13:28:00,57.3,55.9,29.81,SSW,200,1.0,5.0,95,0.00,,,0.57,179,Wunderground v.1.15,2013-04-28 17:28:00,
2013-04-28 13:34:00,57.4,56.0,29.81,East,93,2.0,5.0,95,0.00,,,0.57,162,Wunderground v.1.15,2013-04-28 17:34:00,
2013-04-28 13:39:00,57.5,56.1,29.81,NE,39,2.0,5.0,95,0.00,,,0.57,236,Wunderground v.1.15,2013-04-28 17:39:00,
2013-04-28 13:45:00,57.8,56.4,29.80,SSW,200,1.0,5.0,95,0.00,,,0.57,276,Wunderground v.1.15,2013-04-28 17:45:00,
2013-04-28 13:51:00,58.0,56.6,29.81,SSW,192,1.0,5.0,95,0.00,,,0.57,271,Wunderground v.1.15,2013-04-28 17:51:00,
2013-04-28 13:56:00,58.1,56.4,29.80,SSW,194,2.0,5.0,94,0.00,,,0.57,209,Wunderground v.1.15,2013-04-28 17:56:00,
2013-04-28 14:02:00,58.2,56.5,29.80,SSW,192,2.0,11.0,94,0.00,,,0.57,156,Wunderground v.1.15,2013-04-28 18:02:00,
2013-04-28 14:08:00,58.1,56.1,29.80,SW,217,2.0,11.0,93,0.00,,,0.57,146,Wunderground v.1.15,2013-04-28 18:08:00,
2013-04-28 14:14:00,58.0,56.3,29.80,ESE,106,3.0,11.0,94,0.00,,,0.57,200,Wunderground v.1.15,2013-04-28 18:14:00,
2013-04-28 14:20:00,58.1,56.4,29.80,SSW,204,2.0,11.0,94,0.00,,,0.57,271,Wunderground v.1.15,2013-04-28 18:20:00,
2013-04-28 14:26:00,58.2,56.0,29.80,SSW,207,5.0,-999.0,93,-99.99,,,0.57,,weatherlink.com 1.10,2013-04-28 18:26:00,
2013-04-28 14:31:00,58.2,56.2,29.80,SSW,193,5.0,11.0,93,0.00,,,0.57,174,Wunderground v.1.15,2013-04-28 18:31:00,
2013-04-28 14:37:00,58.3,56.3,29.80,SE,133,5.0,11.0,93,0.00,,,0.57,172,Wunderground v.1.15,2013-04-28 18:37:00,
2013-04-28 14:43:00,58.3,56.0,29.80,SW,221,4.0,11.0,92,0.00,,,0.57,171,Wunderground v.1.15,2013-04-28 18:43:00,
2013-04-28 14:49:00,58.4,56.1,29.80,South,191,3.0,11.0,92,0.00,,,0.57,171,Wunderground v.1.15,2013-04-28 18:49:00,
2013-04-28 14:54:00,58.5,56.2,29.80,SSW,192,2.0,11.0,92,0.00,,,0.57,111,Wunderground v.1.15,2013-04-28 18:54:00,
2013-04-28 15:00:00,58.7,56.4,29.80,SSW,193,1.0,4.0,92,0.00,,,0.57,100,Wunderground v.1.15,2013-04-28 19:00:00,
2013-04-28 15:06:00,58.7,56.1,29.80,SSW,196,2.0,11.0,91,0.00,,,0.57,63,Wunderground v.1.15,2013-04-28 19:06:00,
2013-04-28 15:11:00,58.6,56.0,29.80,SSW,198,4.0,11.0,91,0.00,,,0.57,74,Wunderground v.1.15,2013-04-28 19:11:00,
2013-04-28 15:17:00,58.6,56.0,29.80,SSW,209,4.0,11.0,91,0.00,,,0.57,100,Wunderground v.1.15,2013-04-28 19:17:00,
2013-04-28 15:22:00,58.6,56.0,29.80,SSW,196,4.0,11.0,91,0.00,,,0.57,137,Wunderground v.1.15,2013-04-28 19:22:00,
2013-04-28 15:28:00,58.7,55.8,29.80,SSW,202,4.0,11.0,90,0.00,,,0.57,167,Wunderground v.1.15,2013-04-28 19:28:00,
2013-04-28 15:34:00,58.9,56.0,29.80,SW,222,4.0,11.0,90,0.00,,,0.57,116,Wunderground v.1.15,2013-04-28 19:34:00,
2013-04-28 15:39:00,59.0,56.1,29.79,SSW,209,4.0,11.0,90,0.00,,,0.57,137,Wunderground v.1.15,2013-04-28 19:39:00,
2013-04-28 15:45:00,59.1,56.2,29.79,SW,220,3.0,11.0,90,0.00,,,0.57,137,Wunderground v.1.15,2013-04-28 19:45:00,
2013-04-28 15:51:00,59.1,56.2,29.79,SW,225,2.0,11.0,90,0.00,,,0.57,171,Wunderground v.1.15,2013-04-28 19:51:00,
2013-04-28 15:56:00,59.1,56.0,29.79,SSW,209,2.0,-999.0,90,-99.99,,,0.57,,weatherlink.com 1.10,2013-04-28 19:56:00,
2013-04-28 16:02:00,59.1,55.9,29.79,South,190,3.0,9.0,89,0.00,,,0.57,76,Wunderground v.1.15,2013-04-28 20:02:00,
2013-04-28 16:07:00,59.0,55.8,29.79,South,190,1.0,9.0,89,0.00,,,0.57,83,Wunderground v.1.15,2013-04-28 20:07:00,
2013-04-28 16:13:00,59.0,56.7,29.79,West,276,0.0,9.0,92,0.00,,,0.57,120,Wunderground v.1.15,2013-04-28 20:13:00,
2013-04-28 16:18:00,59.1,56.2,29.78,West,276,0.0,9.0,90,0.00,,,0.57,139,Wunderground v.1.15,2013-04-28 20:18:00,
2013-04-28 16:24:00,59.2,56.6,29.78,West,277,0.0,9.0,91,0.00,,,0.57,63,Wunderground v.1.15,2013-04-28 20:24:00,
2013-04-28 16:30:00,59.2,56.6,29.78,West,277,0.0,9.0,91,0.00,,,0.57,40,Wunderground v.1.15,2013-04-28 20:30:00,
2013-04-28 16:36:00,59.1,56.5,29.78,West,276,0.0,9.0,91,0.00,,,0.58,33,Wunderground v.1.15,2013-04-28 20:36:00,
2013-04-28 16:42:00,58.9,56.3,29.78,West,277,0.0,9.0,91,0.00,,,0.58,35,Wunderground v.1.15,2013-04-28 20:42:00,
2013-04-28 16:47:00,58.7,56.4,29.78,West,276,0.0,9.0,92,0.00,,,0.58,44,Wunderground v.1.15,2013-04-28 20:47:00,
2013-04-28 16:53:00,58.7,56.4,29.78,West,276,0.0,9.0,92,0.00,,,0.58,134,Wunderground v.1.15,2013-04-28 20:53:00,
2013-04-28 16:59:00,58.7,56.4,29.78,SW,226,0.0,9.0,92,0.00,,,0.58,144,Wunderground v.1.15,2013-04-28 20:59:00,
2013-04-28 17:04:00,58.8,56.2,29.78,SW,220,2.0,4.0,91,0.00,,,0.58,144,Wunderground v.1.15,2013-04-28 21:04:00,
2013-04-28 17:10:00,58.9,57.0,29.78,SW,219,0.0,-999.0,92,-99.99,,,0.58,,weatherlink.com 1.10,2013-04-28 21:10:00,
2013-04-28 17:18:00,58.9,56.3,29.78,WSW,249,1.0,4.0,91,0.00,,,0.58,134,Wunderground v.1.15,2013-04-28 21:18:00,
2013-04-28 17:24:00,58.9,56.3,29.78,SW,230,1.0,4.0,91,0.00,,,0.59,116,Wunderground v.1.15,2013-04-28 21:24:00,
2013-04-28 17:30:00,58.9,56.3,29.78,SW,229,1.0,1.0,91,0.00,,,0.59,114,Wunderground v.1.15,2013-04-28 21:30:00,
2013-04-28 17:36:00,58.8,56.2,29.78,WSW,246,1.0,4.0,91,0.00,,,0.59,111,Wunderground v.1.15,2013-04-28 21:36:00,
2013-04-28 17:42:00,58.8,56.0,29.78,WSW,246,0.0,-999.0,91,-99.99,,,0.59,,weatherlink.com 1.10,2013-04-28 21:42:00,
2013-04-28 17:47:00,58.9,56.3,29.78,WSW,246,0.0,4.0,91,0.00,,,0.59,155,Wunderground v.1.15,2013-04-28 21:47:00,
2013-04-28 17:53:00,59.0,56.4,29.78,WSW,246,0.0,4.0,91,0.00,,,0.59,174,Wunderground v.1.15,2013-04-28 21:53:00,
2013-04-28 17:59:00,59.2,56.3,29.78,WSW,245,0.0,4.0,90,0.00,,,0.59,209,Wunderground v.1.15,2013-04-28 21:59:00,
2013-04-28 18:05:00,59.3,56.4,29.78,WSW,245,0.0,6.0,90,0.00,,,0.59,141,Wunderground v.1.15,2013-04-28 22:05:00,
2013-04-28 18:11:00,59.3,56.0,29.78,WSW,246,0.0,-999.0,90,-99.99,,,0.59,,weatherlink.com 1.10,2013-04-28 22:11:00,
2013-04-28 18:16:00,59.4,56.5,29.78,WSW,245,0.0,6.0,90,0.00,,,0.59,30,Wunderground v.1.15,2013-04-28 22:16:00,
2013-04-28 18:21:00,59.3,56.4,29.78,SSW,192,2.0,6.0,90,0.00,,,0.59,18,Wunderground v.1.15,2013-04-28 22:21:00,
2013-04-28 18:27:00,58.8,56.0,29.79,West,273,4.0,-999.0,91,-99.99,,,0.59,,weatherlink.com 1.10,2013-04-28 22:27:00,
2013-04-28 18:32:00,58.4,55.8,29.79,WNW,296,4.0,6.0,91,0.00,,,0.59,32,Wunderground v.1.15,2013-04-28 22:32:00,
2013-04-28 18:38:00,58.1,55.8,29.79,WNW,284,2.0,6.0,92,0.00,,,0.59,35,Wunderground v.1.15,2013-04-28 22:38:00,
2013-04-28 18:44:00,58.0,56.0,29.79,WNW,284,0.0,6.0,93,0.00,,,0.59,77,Wunderground v.1.15,2013-04-28 22:44:00,
2013-04-28 18:50:00,58.1,56.1,29.79,WNW,284,0.0,6.0,93,0.00,,,0.59,105,Wunderground v.1.15,2013-04-28 22:50:00,
2013-04-28 18:55:00,58.2,56.0,29.79,WNW,284,0.0,-999.0,93,-99.99,,,0.60,,weatherlink.com 1.10,2013-04-28 22:55:00,
2013-04-28 19:00:00,58.4,56.4,29.79,WNW,284,0.0,1.0,93,0.00,,,0.60,163,Wunderground v.1.15,2013-04-28 23:00:00,
2013-04-28 19:06:00,58.6,56.6,29.78,WNW,284,0.0,10.0,93,0.00,,,0.60,149,Wunderground v.1.15,2013-04-28 23:06:00,
2013-04-28 19:11:00,58.8,56.5,29.78,WNW,284,0.0,10.0,92,0.00,,,0.60,141,Wunderground v.1.15,2013-04-28 23:11:00,
2013-04-28 19:17:00,59.1,56.5,29.78,WNW,284,0.0,10.0,91,0.00,,,0.60,100,Wunderground v.1.15,2013-04-28 23:17:00,
2013-04-28 19:23:00,59.0,56.4,29.78,WNW,284,0.0,10.0,91,0.00,,,0.60,60,Wunderground v.1.15,2013-04-28 23:23:00,
2013-04-28 19:29:00,58.9,56.3,29.78,WNW,284,0.0,10.0,91,0.00,,,0.60,30,Wunderground v.1.15,2013-04-28 23:29:00,
2013-04-28 19:34:00,58.9,56.3,29.78,WNW,296,0.0,10.0,91,0.00,,,0.60,26,Wunderground v.1.15,2013-04-28 23:34:00,
2013-04-28 19:40:00,58.8,56.0,29.78,WNW,296,0.0,-999.0,91,-99.99,,,0.60,,weatherlink.com 1.10,2013-04-28 23:40:00,
2013-04-28 19:45:00,58.8,56.2,29.78,NW,306,1.0,10.0,91,0.00,,,0.60,7,Wunderground v.1.15,2013-04-28 23:45:00,
2013-04-28 19:50:00,58.7,56.1,29.79,North,360,1.0,1.0,91,0.00,,,0.60,9,Wunderground v.1.15,2013-04-28 23:50:00,
2013-04-28 19:56:00,58.6,56.0,29.79,NW,309,2.0,10.0,91,0.00,,,0.60,11,Wunderground v.1.15,2013-04-28 23:56:00,
2013-04-28 20:02:00,58.4,55.5,29.79,NW,317,2.0,3.0,90,0.00,,,0.60,7,Wunderground v.1.15,2013-04-29 00:02:00,
2013-04-28 20:08:00,58.3,55.7,29.79,WNW,286,1.0,3.0,91,0.00,,,0.60,0,Wunderground v.1.15,2013-04-29 00:08:00,
2013-04-28 20:13:00,58.2,55.6,29.79,WNW,292,0.0,3.0,91,0.00,,,0.60,0,Wunderground v.1.15,2013-04-29 00:13:00,
2013-04-28 20:19:00,58.1,55.8,29.79,WNW,292,0.0,3.0,92,0.00,,,0.60,0,Wunderground v.1.15,2013-04-29 00:19:00,
2013-04-28 20:25:00,58.0,56.0,29.79,NNW,329,0.0,-999.0,92,-99.99,,,0.60,,weatherlink.com 1.10,2013-04-29 00:25:00,
2013-04-28 20:30:00,57.9,55.6,29.80,NNW,329,0.0,3.0,92,0.00,,,0.60,0,Wunderground v.1.15,2013-04-29 00:30:00,
2013-04-28 20:35:00,57.9,55.6,29.80,NNW,329,0.0,3.0,92,0.00,,,0.60,0,Wunderground v.1.15,2013-04-29 00:35:00,
2013-04-28 20:41:00,57.8,55.5,29.80,NNW,329,0.0,3.0,92,0.00,,,0.60,0,Wunderground v.1.15,2013-04-29 00:41:00,
2013-04-28 20:47:00,57.8,55.5,29.80,NNW,329,0.0,3.0,92,0.00,,,0.60,0,Wunderground v.1.15,2013-04-29 00:47:00,
2013-04-28 20:53:00,57.7,55.4,29.80,NNW,329,0.0,3.0,92,0.00,,,0.60,0,Wunderground v.1.15,2013-04-29 00:53:00,
2013-04-28 20:59:00,57.7,55.4,29.80,NNW,329,0.0,3.0,92,0.00,,,0.60,0,Wunderground v.1.15,2013-04-29 00:59:00,
2013-04-28 21:04:00,57.6,55.6,29.80,NNW,329,0.0,3.0,93,0.00,,,0.60,0,Wunderground v.1.15,2013-04-29 01:04:00,
2013-04-28 21:10:00,57.6,55.6,29.80,NNW,329,0.0,3.0,93,0.00,,,0.60,0,Wunderground v.1.15,2013-04-29 01:10:00,
2013-04-28 21:15:00,57.5,55.5,29.80,NNW,329,0.0,3.0,93,0.00,,,0.60,0,Wunderground v.1.15,2013-04-29 01:15:00,
2013-04-28 21:20:00,57.5,55.5,29.80,NW,322,0.0,3.0,93,0.00,,,0.60,0,Wunderground v.1.15,2013-04-29 01:20:00,
2013-04-28 21:26:00,57.5,55.5,29.81,NW,322,0.0,3.0,93,0.00,,,0.60,0,Wunderground v.1.15,2013-04-29 01:26:00,
2013-04-28 21:31:00,57.5,55.5,29.81,NW,322,0.0,3.0,93,0.00,,,0.60,0,Wunderground v.1.15,2013-04-29 01:31:00,
2013-04-28 21:37:00,57.4,55.4,29.81,WNW,287,0.0,3.0,93,0.00,,,0.60,0,Wunderground v.1.15,2013-04-29 01:37:00,
2013-04-28 21:43:00,57.4,55.1,29.81,WNW,287,0.0,3.0,92,0.00,,,0.60,0,Wunderground v.1.15,2013-04-29 01:43:00,
2013-04-28 21:48:00,57.4,55.1,29.81,West,277,1.0,3.0,92,0.00,,,0.60,0,Wunderground v.1.15,2013-04-29 01:48:00,
2013-04-28 21:53:00,57.3,55.3,29.81,West,276,2.0,3.0,93,0.00,,,0.60,0,Wunderground v.1.15,2013-04-29 01:53:00,
2013-04-28 21:59:00,57.3,55.3,29.81,West,279,2.0,3.0,93,0.00,,,0.60,0,Wunderground v.1.15,2013-04-29 01:59:00,
2013-04-28 22:04:00,57.2,55.2,29.82,West,277,1.0,3.0,93,0.00,,,0.60,0,Wunderground v.1.15,2013-04-29 02:04:00,
2013-04-28 22:09:00,57.2,55.2,29.82,West,277,1.0,3.0,93,0.00,,,0.60,0,Wunderground v.1.15,2013-04-29 02:09:00,
2013-04-28 22:14:00,57.1,55.1,29.82,West,280,0.0,3.0,93,0.00,,,0.60,0,Wunderground v.1.15,2013-04-29 02:14:00,
2013-04-28 22:20:00,57.0,55.0,29.82,WNW,294,0.0,3.0,93,0.00,,,0.60,0,Wunderground v.1.15,2013-04-29 02:20:00,
2013-04-28 22:26:00,56.9,54.9,29.82,WNW,294,0.0,3.0,93,0.00,,,0.60,0,Wunderground v.1.15,2013-04-29 02:26:00,
2013-04-28 22:32:00,56.9,54.9,29.82,WNW,294,0.0,3.0,93,0.00,,,0.60,0,Wunderground v.1.15,2013-04-29 02:32:00,
2013-04-28 22:38:00,56.8,54.8,29.82,WNW,294,0.0,3.0,93,0.00,,,0.60,0,Wunderground v.1.15,2013-04-29 02:38:00,
2013-04-28 22:44:00,56.7,54.7,29.82,WNW,294,0.0,3.0,93,0.00,,,0.60,0,Wunderground v.1.15,2013-04-29 02:44:00,
2013-04-28 22:50:00,56.7,54.7,29.82,NW,313,0.0,3.0,93,0.00,,,0.60,0,Wunderground v.1.15,2013-04-29 02:50:00,
2013-04-28 22:55:00,56.6,54.6,29.82,NW,313,0.0,3.0,93,0.00,,,0.60,0,Wunderground v.1.15,2013-04-29 02:55:00,
2013-04-28 23:00:00,56.6,54.6,29.82,WNW,300,0.0,0.0,93,0.00,,,0.60,0,Wunderground v.1.15,2013-04-29 03:00:00,
2013-04-28 23:06:00,56.5,54.5,29.82,WNW,286,1.0,3.0,93,0.00,,,0.60,0,Wunderground v.1.15,2013-04-29 03:06:00,
2013-04-28 23:11:00,56.4,54.4,29.82,WNW,282,1.0,3.0,93,0.00,,,0.60,0,Wunderground v.1.15,2013-04-29 03:11:00,
2013-04-28 23:16:00,56.4,54.7,29.82,West,281,0.0,3.0,94,0.00,,,0.60,0,Wunderground v.1.15,2013-04-29 03:16:00,
2013-04-28 23:22:00,56.3,54.6,29.82,West,281,0.0,3.0,94,0.00,,,0.60,0,Wunderground v.1.15,2013-04-29 03:22:00,
2013-04-28 23:28:00,56.3,54.6,29.83,West,281,0.0,3.0,94,0.00,,,0.60,0,Wunderground v.1.15,2013-04-29 03:28:00,
2013-04-28 23:34:00,56.3,54.6,29.83,WNW,282,1.0,3.0,94,0.00,,,0.60,0,Wunderground v.1.15,2013-04-29 03:34:00,
2013-04-28 23:39:00,56.2,54.5,29.83,West,281,1.0,3.0,94,0.00,,,0.60,0,Wunderground v.1.15,2013-04-29 03:39:00,
2013-04-28 23:45:00,56.1,54.4,29.83,WNW,282,0.0,3.0,94,0.00,,,0.60,0,Wunderground v.1.15,2013-04-29 03:45:00,
2013-04-28 23:51:00,56.1,54.4,29.83,WNW,282,0.0,3.0,94,0.00,,,0.60,0,Wunderground v.1.15,2013-04-29 03:51:00,
2013-04-28 23:57:00,56.1,54.4,29.83,WNW,282,0.0,3.0,94,0.00,,,0.60,0,Wunderground v.1.15,2013-04-29 03:57:00,